[[{"header":{"parameterUnit":"m.s-1","parameterCategory":1,"la1":30.2991,"la2":30.254,"lo1":-89.0895,"lo2":-89.0444,"dy":0.0017,"dx":0.0017,"nx":28,"ny":28,"refTime":"2025-07-18T09:00:00:Z","depth":0,"parameterNumber":2,"parameterNumberName":"U-component_of_WINDS"},"data":[0,0,0,0,0,0,0,0,0,0,0,0,0,0,0,0,0,0,0,0,0,0,0,0,0,0,0,0,0,0,0,0,0,0,0,0,0,0,0,0,0,0,0,0,0,0,0,0,0,0,0,0,0,0,0,0,0,0,0.7054,0.7054,0,0.6966,0.6965,0.6964,0.6827,0.6825,0.6822,0.682,0.6733,0.6733,0.6733,0,0,0,0,0,0,0,0,0,0,0,0,0,0.7107,0.7107,0.7055,0.7053,0.7052,0.6966,0.6965,0.6964,0.6828,0.6825,0.6822,0.6819,0.6733,0.6733,0.6733,0,0,0,0,0,0,0,0,0,0,0,0,0,0.7058,0.7107,0.7055,0.6974,0.6966,0.6967,0.6965,0.6964,0.6828,0.6825,0.6821,0.6818,0.6733,0.6733,0.6733,0.6807,0,0,0.6733,0.6733,0,0,0,0,0,0,0,0,0.7061,0.7057,0.6987,0.6979,0.697,0.6904,0.6952,0.6911,0.6829,0.6881,0.682,0.6816,0.6793,0.6788,0.678,0.6803,0.6799,0.6733,0.6733,0.6733,0.6733,0,0,0,0,0,0,0,0.7065,0.706,0.702,0.6986,0.6976,0.6943,0.6932,0.6943,0.6859,0.6876,0.6866,0.6857,0.6788,0.678,0.6777,0.6798,0.6733,0.6733,0.6733,0.6733,0.6876,0.6879,0,0,0,0,0,0,0.708,0.7063,0.7022,0.7017,0.7008,0.6945,0.6932,0.6929,0.6858,0.6844,0.686,0.6851,0.6782,0.6777,0.6773,0.6853,0.6733,0.6733,0.6733,0.6872,0.6876,0.688,0,0,0,0,0,0,0.7081,0.7077,0.7026,0.7037,0.7028,0.6948,0.6945,0.6929,0.6921,0.6846,0.6831,0.6868,0.6779,0.6773,0.6799,0.6849,0.6733,0.6733,0.6867,0.6873,0.6878,0.7016,0,0,0,0,0,0,0.7084,0.7079,0.7106,0.7039,0.7028,0.7053,0.6948,0.693,0.6921,0.6908,0.6849,0.6836,0.6775,0.68,0.6799,0.6847,0.6733,0.6862,0.687,0.6877,0.7007,0.7026,0.7042,0,0,0,0,0,0.7086,0.7149,0.7108,0.7104,0.706,0.7056,0.705,0.6978,0.6926,0.6952,0.6904,0.6838,0.6844,0.6804,0.6801,0.685,0.6859,0.6868,0.6876,0.6999,0.7022,0.7042,0,0,0,0,0,0,0.7225,0.7139,0.7092,0.7135,0.7104,0.7033,0.7064,0.7006,0.699,0.6978,0.6891,0.6879,0.6916,0.6885,0.6842,0.6917,0.6841,0.685,0.6935,0.6957,0.6974,0.6981,0.6733,0,0,0,0,0,0.7261,0.7264,0.7189,0.7234,0.7221,0.7146,0.7142,0.7089,0.7053,0.704,0.6993,0.6962,0.6957,0.6955,0.6946,0.7002,0.6987,0.7034,0.7052,0.7067,0.7075,0.7101,0.7121,0.6909,0.6908,0.6908,0,0,0.7335,0.7288,0.7296,0.7261,0.7231,0.7237,0.7136,0.7147,0.715,0.7042,0.7062,0.7028,0.6987,0.7028,0.7044,0.7004,0.713,0.7078,0.709,0.709,0.7112,0.7132,0.715,0.6914,0.6913,0.6912,0,0,0.7472,0.7437,0.747,0.7442,0.7396,0.7345,0.7354,0.7292,0.7264,0.7283,0.7201,0.7205,0.7198,0.7171,0.7157,0.7284,0.7222,0.7284,0.7376,0.7403,0.7419,0.7434,0.7478,0.7495,0.7292,0.7293,0.7293,0,0.7569,0.7574,0.7495,0.7511,0.7498,0.7399,0.7432,0.7408,0.7363,0.7357,0.7312,0.73,0.7266,0.7299,0.7329,0.7322,0.7328,0.729,0.7423,0.7437,0.7449,0.7491,0.7508,0.73,0.7299,0.7299,0.7298,0,0.7696,0.7701,0.7734,0.7691,0.7681,0.7706,0.7631,0.7632,0.758,0.7534,0.7555,0.751,0.749,0.7494,0.7444,0.7519,0.7496,0.7439,0.7361,0.7479,0.7516,0.7531,0.7311,0.7309,0.7306,0.7304,0,0,0.7919,0.7831,0.7844,0.7823,0.7765,0.7768,0.7788,0.7767,0.7768,0.7741,0.7755,0.7751,0.7697,0.7681,0.7627,0.7651,0.7753,0.759,0.7588,0.7622,0.7833,0.7876,0.7895,0.7712,0.7714,0.7717,0.7836,0,0.8043,0.8072,0.8001,0.8047,0.805,0.7956,0.7973,0.794,0.7898,0.7895,0.7848,0.7846,0.7776,0.7766,0.7785,0.7737,0.7794,0.7727,0.7724,0.7725,0.7737,0.7915,0.796,0.8075,0.785,0.7852,0.7854,0,0.8193,0.8171,0.8218,0.8156,0.8155,0.8172,0.8146,0.8144,0.8105,0.8072,0.8054,0.7991,0.8007,0.7932,0.7952,0.7908,0.7903,0.7879,0.7882,0.7878,0.7797,0.7916,0.811,0.8127,0.7876,0.7875,0.7873,0,0.8349,0.8332,0.8357,0.8342,0.8271,0.8285,0.8257,0.8213,0.8205,0.8183,0.8176,0.8157,0.8147,0.8133,0.8066,0.8018,0.8094,0.8014,0.8068,0.807,0.8088,0.8088,0.8284,0.8086,0.8086,0.8086,0.8085,0,0.8496,0.8528,0.8426,0.8441,0.8474,0.8393,0.8428,0.839,0.8352,0.8359,0.8276,0.8285,0.8196,0.8194,0.8142,0.8166,0.8163,0.8137,0.8123,0.8144,0.8147,0.8139,0.8129,0.809,0.8089,0.8088,0.8087,0,0.8676,0.8609,0.863,0.8561,0.8544,0.8572,0.8513,0.8524,0.8477,0.8486,0.8484,0.8409,0.8403,0.8335,0.8315,0.8279,0.8324,0.8295,0.8337,0.8327,0.8384,0.838,0.8581,0.8603,0.8393,0.8395,0.8397,0,0.8773,0.8795,0.8728,0.8726,0.8701,0.87,0.869,0.8611,0.8605,0.8561,0.8578,0.8565,0.855,0.8545,0.8489,0.8473,0.8442,0.8514,0.8439,0.846,0.8442,0.8442,0.8443,0.853,0.8532,0.8535,0.8536,0,0.8953,0.8918,0.8907,0.8885,0.8876,0.8855,0.8829,0.8832,0.8745,0.8742,0.8734,0.8723,0.8701,0.8689,0.8662,0.8633,0.8571,0.856,0.8572,0.8593,0.8617,0.8604,0.838,0.8556,0.8554,0.8553,0.8552,0.8551,0.9093,0.9108,0.9063,0.9054,0.9026,0.9003,0.901,0.8963,0.8955,0.893,0.8884,0.8883,0.8843,0.88,0.8776,0.8775,0.8737,0.8754,0.8758,0.8764,0.8775,0.8618,0.877,0.8769,0.8768,0.8768,0.8767,0,0.9268,0.9234,0.9226,0.9192,0.9184,0.9125,0.9093,0.9091,0.9091,0.9058,0.9045,0.9036,0.9023,0.8967,0.8948,0.8958,0.8929,0.8956,0.8954,0.8948,0.8809,0.8801,0.8979,0.8979,0.8979,0.8979,0.8979,0.8979,0.9358,0.9379,0.934,0.9347,0.9313,0.931,0.9297,0.9276,0.9249,0.9242,0.9231,0.9194,0.9151,0.9129,0.9115,0.9099,0.9096,0.9133,0.9107,0.8978,0.8958,0.8938,0.893,0.9133,0.9133,0.9245,0.9246,0.9247]},{"header":{"parameterUnit":"m.s-1","parameterCategory":1,"la1":30.2991,"la2":30.254,"lo1":-89.0895,"lo2":-89.0444,"dy":0.0017,"dx":0.0017,"nx":28,"ny":28,"refTime":"2025-07-18T09:00:00:Z","depth":0,"parameterNumber":3,"parameterNumberName":"V-component_of_WINDS"},"data":[0,0,0,0,0,0,0,0,0,0,0,0,0,0,0,0,0,0,0,0,0,0,0,0,0,0,0,0,0,0,0,0,0,0,0,0,0,0,0,0,0,0,0,0,0,0,0,0,0,0,0,0,0,0,0,0,0,0,6.3823,6.3826,0,6.4081,6.4084,6.4086,6.4085,6.4082,6.4079,6.4075,6.4331,6.4341,6.4351,0,0,0,0,0,0,0,0,0,0,0,0,0,6.3319,6.3328,6.3823,6.3826,6.3829,6.408,6.4084,6.4087,6.4086,6.4082,6.4078,6.4074,6.4328,6.434,6.4352,0,0,0,0,0,0,0,0,0,0,0,0,0,6.3553,6.3332,6.3822,6.3859,6.3865,6.408,6.4084,6.4088,6.4087,6.4082,6.4077,6.4072,6.4324,6.4339,6.4353,6.4546,0,0,6.4399,6.4405,0,0,0,0,0,0,0,0,6.354,6.3572,6.385,6.3857,6.3864,6.4046,6.4,6.4241,6.4088,6.4002,6.4075,6.4069,6.424,6.4261,6.4321,6.4558,6.4569,6.44,6.4409,6.4416,6.442,0,0,0,0,0,0,0,6.3524,6.3561,6.3924,6.3854,6.3863,6.3859,6.3887,6.4046,6.4146,6.4009,6.401,6.4041,6.4243,6.4306,6.4327,6.4573,6.44,6.4413,6.4422,6.4428,6.4977,6.4982,0,0,0,0,0,0,6.3501,6.3547,6.3916,6.3932,6.3687,6.3872,6.3903,6.3992,6.4144,6.4163,6.4045,6.404,6.4283,6.4309,6.4336,6.4568,6.4416,6.443,6.4438,6.4971,6.4978,6.4984,0,0,0,0,0,0,6.3491,6.3534,6.3906,6.374,6.3787,6.3887,6.3986,6.4,6.4064,6.4171,6.4188,6.4092,6.428,6.4315,6.4493,6.4577,6.4436,6.445,6.4965,6.4973,6.4981,6.5037,0,0,0,0,0,0,6.3476,6.3531,6.3607,6.3742,6.3796,6.4063,6.3992,6.4009,6.4091,6.4086,6.422,6.4237,6.4279,6.4471,6.4508,6.4595,6.4462,6.4957,6.4969,6.4978,6.5028,6.5047,6.5062,0,0,0,0,0,6.3458,6.3612,6.3611,6.3656,6.3895,6.4068,6.4098,6.4145,6.4097,6.4173,6.4242,6.4233,6.4563,6.449,6.4531,6.4624,6.4952,6.4965,6.4978,6.5021,6.5043,6.5062,0,0,0,0,0,0,6.3482,6.363,6.3631,6.3834,6.3938,6.4067,6.4165,6.4168,6.4286,6.4277,6.4328,6.4358,6.4536,6.4598,6.4514,6.4816,6.4751,6.4773,6.4769,6.4792,6.4808,6.4788,6.4474,0,0,0,0,0,6.3512,6.3643,6.3764,6.393,6.3983,6.4065,6.4142,6.4169,6.4279,6.4322,6.4404,6.4508,6.4634,6.4716,6.4839,6.5038,6.5064,6.5122,6.5138,6.5152,6.5169,6.5275,6.5301,6.5026,6.5026,6.5025,0,0,6.3573,6.367,6.3749,6.3938,6.4022,6.4153,6.4102,6.4244,6.434,6.4343,6.4517,6.458,6.4699,6.4887,6.4975,6.4945,6.5251,6.5168,6.5178,6.5188,6.5291,6.5317,6.534,6.5034,6.5033,6.5031,0,0,6.375,6.3839,6.3986,6.4071,6.42,6.4253,6.4288,6.4417,6.446,6.4636,6.4639,6.4753,6.4971,6.5055,6.5126,6.5333,6.5328,6.5371,6.5459,6.5562,6.5583,6.5603,6.5674,6.5699,6.5389,6.5389,6.5389,0,6.3809,6.401,6.406,6.4203,6.4283,6.4294,6.4441,6.452,6.4681,6.4736,6.4701,6.4973,6.5054,6.526,6.5311,6.5369,6.5408,6.5356,6.5577,6.5597,6.5615,6.5683,6.571,6.5393,6.5393,6.5392,6.5392,0,6.4074,6.4213,6.4316,6.4473,6.4566,6.471,6.4778,6.4865,6.4884,6.4939,6.5116,6.5213,6.5355,6.5406,6.5425,6.5615,6.5592,6.5566,6.5501,6.5645,6.571,6.5736,6.5399,6.5398,6.5396,6.5395,0,0,6.4274,6.4457,6.4494,6.4564,6.4706,6.4812,6.4954,6.5095,6.5167,6.5277,6.5395,6.5579,6.5556,6.5636,6.5664,6.5755,6.5908,6.5718,6.5721,6.5747,6.6119,6.6136,6.6165,6.5907,6.5912,6.5916,6.6108,0,6.4465,6.4722,6.477,6.4991,6.5117,6.5128,6.5251,6.535,6.5405,6.5517,6.5577,6.5705,6.5667,6.5715,6.5805,6.5871,6.5983,6.5858,6.6013,6.6018,6.5981,6.62,6.6219,6.6395,6.6134,6.6138,6.6142,0,6.4722,6.484,6.5075,6.5198,6.5252,6.5363,6.5493,6.5603,6.5713,6.5746,6.5835,6.5853,6.5997,6.5927,6.6124,6.6038,6.6104,6.6145,6.6153,6.6168,6.6087,6.6218,6.6453,6.6479,6.6182,6.6179,6.6176,0,6.4841,6.5059,6.5227,6.5286,6.5435,6.5511,6.5576,6.5681,6.5762,6.5875,6.5927,6.6054,6.6124,6.6221,6.6271,6.6216,6.6463,6.6398,6.6492,6.6491,6.6543,6.6538,6.679,6.6589,6.6589,6.6588,6.6588,0,6.5048,6.519,6.5282,6.5385,6.5543,6.5595,6.5749,6.5812,6.5906,6.6018,6.6035,6.6139,6.62,6.6313,6.6353,6.6508,6.654,6.6568,6.6576,6.6566,6.6562,6.6608,6.6596,6.6595,6.6594,6.6592,6.6591,0,6.5207,6.5275,6.5457,6.5583,6.5617,6.5728,6.5833,6.5931,6.5986,6.6128,6.6164,6.6249,6.6382,6.6442,6.6606,6.6633,6.6809,6.681,6.6772,6.6775,6.6865,6.6854,6.7153,6.7194,6.6968,6.697,6.6972,0,6.5333,6.5443,6.558,6.5658,6.5725,6.585,6.5932,6.5987,6.6071,6.6203,6.6285,6.6419,6.6529,6.674,6.6814,6.6939,6.6941,6.7037,6.696,6.6944,6.6939,6.6932,6.6941,6.705,6.7053,6.7055,6.7056,0,6.5549,6.5577,6.5696,6.5827,6.5925,6.603,6.6132,6.6194,6.6264,6.6357,6.6495,6.658,6.6747,6.6879,6.7008,6.7071,6.7074,6.708,6.7108,6.7097,6.707,6.7083,6.6808,6.7073,6.7071,6.707,6.7069,6.7068,6.5694,6.5791,6.5902,6.6034,6.6117,6.6212,6.631,6.6377,6.6493,6.6635,6.666,6.6805,6.6909,6.7083,6.715,6.7262,6.7239,6.728,6.729,6.7299,6.7303,6.7054,6.7286,6.7286,6.7285,6.7285,6.7285,0,6.5909,6.5981,6.6101,6.6245,6.6347,6.6344,6.6457,6.6541,6.667,6.6768,6.6876,6.7032,6.7159,6.7243,6.7371,6.7444,6.7449,6.7476,6.747,6.7483,6.7318,6.728,6.747,6.747,6.747,6.747,6.747,6.747,6.6032,6.6195,6.6236,6.6439,6.6509,6.6653,6.6717,6.6803,6.6882,6.7056,6.7162,6.7217,6.7309,6.7443,6.7558,6.7579,6.7624,6.7652,6.7672,6.7515,6.7495,6.7477,6.7441,6.7662,6.7662,6.7828,6.7829,6.7831]}]]